COSMOS 2251 DEB, 34028

Orbit data source: Space-Track

COSMOS 2251 DEB, 34028 is space debris in LEO originally from a launch on Wed, 16 Jun 1993 UTC launched from the Plesetsk Missile And Space Complex (PKMTR). The debris from Iridium 33, an American commercial communications satellite, has been tracked extensively since its accidental collision with the defunct Russian satellite Cosmos 2251 in 2009. This event, occurring at high speed in low Earth orbit (LEO), generated thousands of pieces of space debris, significantly increasing the risk of further collisions. The Iridium 33 debris cloud has impacted space traffic management and orbital debris mitigation strategies, making it a subject of ongoing study in space situational awareness.

Loading next visibility...
Identifier
34028, 1993-036HP
Orbit
LEO
Country
Flag of CISCIS
Related business
Manufacturer
Unknown
Mission
Spacecraft
Bus & Motor
Unknown
Mass
Unknown
Launch date (UTC)
1993-06-16 (33 years ago)
Launch vehicle
Unknown
Launch site
Plesetsk Missile And Space Complex (PKMTR)
Object type
Payload
Rocket body
Debris
Shape & HBR
Unknown shape, 0.1 m
Radar Cross Section
Medium (>0.1 m² and <1 m²)

Expand to show TLE details & history
Last TLE update: 11 hours ago

TLE from 11 hours ago
0 COSMOS 2251 DEB
1 34028U 93036HP  26236.47093051 -.00000006  00000-0  13203-4 0  9996
2 34028  73.8838 316.5930 0544706  51.4999 326.0683 13.20816269843715
Epoch: 2026-08-24T11:18Z
TLE epoch observation values (Epoch: 2026-08-24T11:18:08.396Z)
Latitude
13.2966°
Longitude
178.20043°
Altitude
849.099 km
Speed
7.592 km/s
True Right ascension
21h 21m 57s
True Declination
13° 13' 15"
Sunlit
Object was in full shadow at epoch
Visualization orbit readout
Latitude
Unknown
Longitude
Unknown
Altitude
Unknown
Speed
Unknown
Apparent Right ascension
Unknown
Apparent Declination
Unknown
Sunlit
N/A
Visualization observer readout
Local Sidereal Time
13:47:30
Azimuth
Unknown
Elevation
Unknown
Doppler factor
Unknown
Orbital elements
Apogee altitude
1,591.021 km
Perigee altitude
767.698 km
Semi-major axis
7,557.496 km
Eccentricity
0.05447
Inclination
73.8838°
RAAN
316.593°
Arg. of periapsis
51.4999°
True anomaly
322.37855°
Mean anomaly
326.0683°
Eccentric anomaly
324.24466°
Mean motion
3.30351 °/min
Orbital period
108.97 mins
BSTAR
0.000013203
Loading maneuver chart data...
Computing Atmospheric mass density...

Documentation

Showing up to 5 results
|